This is the latest recevied weather packets stored in our database for station/object TA3MHA. If no packets are shown the sender has not sent any weather packets the latest 10 day(s).
| Time | Temp. | Humidity | Pressure | Rain* | Wind** | Luminosity | Snow |
|---|---|---|---|---|---|---|---|
| 1777032601 | 18.89° C | 35% | - | 0 mm | - | 857 W/m² | - |
| 1777032301 | 19.44° C | 35% | - | 0 mm | - | 775 W/m² | - |
| 1777032000 | 18.33° C | 33% | - | 0 mm | - | 765 W/m² | - |
| 1777031700 | 18.33° C | 35% | - | 0 mm | - | 761 W/m² | - |
| 1777031401 | 17.78° C | 36% | - | 0 mm | - | 795 W/m² | - |
| 1777031101 | 17.78° C | 35% | - | 0 mm | - | 791 W/m² | - |
| 1777030800 | 18.33° C | 34% | - | 0 mm | - | 776 W/m² | - |
| 1777030501 | 18.33° C | 33% | - | 0 mm | - | 785 W/m² | - |
| 1777030200 | 17.78° C | 35% | - | 0 mm | - | 788 W/m² | - |
| 1777029901 | 17.78° C | 34% | - | 0 mm | - | 797 W/m² | - |
| 1777029601 | 17.78° C | 32% | - | 0 mm | - | 675 W/m² | - |
| 1777029301 | 17.78° C | 33% | - | 0 mm | - | 820 W/m² | - |
| 1777029001 | 17.78° C | 35% | - | 0 mm | - | 830 W/m² | - |
| 1777028701 | 17.22° C | 35% | - | 0 mm | - | 849 W/m² | - |
| 1777028401 | 17.78° C | 34% | - | 0 mm | - | 836 W/m² | - |
| 1777028101 | 17.78° C | 34% | - | 0 mm | - | 853 W/m² | - |
| 1777027801 | 17.78° C | 33% | - | 0 mm | - | 872 W/m² | - |
| 1777027501 | 17.78° C | 32% | - | 0 mm | - | 861 W/m² | - |
| 1777027201 | 17.78° C | 32% | - | 0 mm | - | 838 W/m² | - |
| 1777026901 | 17.78° C | 33% | - | 0 mm | - | 836 W/m² | - |
| 1777026601 | 17.78° C | 37% | - | 0 mm | - | 863 W/m² | - |
| 1777026301 | 17.78° C | 36% | - | 0 mm | - | 844 W/m² | - |
| 1777026001 | 17.78° C | 35% | - | 0 mm | - | 854 W/m² | - |
| 1777025700 | 17.78° C | 36% | - | 0 mm | - | 845 W/m² | - |
| 1777025401 | 17.22° C | 35% | - | 0 mm | - | 854 W/m² | - |
* Rain latest hour (hover to see other rain measurements)
** Current wind speed in m/s (hover to see current wind gust speed)